User: anonymous   Login
Location: Taipo
(41.0000°S, 175.9500°E)
Time: 18:40:31
(UTC+00:00)
Language:

Cosmos 1553 Rocket - Orbit

View from above orbital plane
View from above orbital plane
View from above satellite
View from above satellite

Ground track
Ground track

The orbit data is extracted from the following two-line orbital elements,

1 14974U 84046B   24165.74750980  .00000070  00000-0  54208-4 0  9995
2 14974  82.9371  42.4893 0046203  55.7864   7.1587 13.77058721 13314
Epoch (UTC): 13 June 2024 17:56:24
Eccentricity: 0.0046203
inclination: 82.9371°
perigee height: 940 km
apogee height: 1008 km
right ascension of ascending node: 42.4893°
argument of perigee: 55.7864°
revolutions per day: 13.77058721
mean anomaly at epoch: 7.1587°
orbit number at epoch: 1331

The dashed part of the orbit path shows where the satellite is in the earth's shadow,  

DLR